[[{"header":{"parameterUnit":"m.s-1","parameterCategory":1,"la1":30.2991,"la2":30.254,"lo1":-89.0895,"lo2":-89.0444,"dy":0.0017,"dx":0.0017,"nx":28,"ny":28,"refTime":"2024-02-14T03:00:00:Z","depth":0,"parameterNumber":2,"parameterNumberName":"U-component_of_WINDS"},"data":[0,0,0,0,0,0,0,0,0,0,0,0,0,0,0,0,0,0,0,0,0,0,0,0,0,0,0,0,0,0,0,0,0,0,0,0,0,0,0,0,0,0,0,0,0,0,0,0,0,0,0,0,0,0,0,0,0,0,-0.3044,-0.3043,0,-0.2951,-0.295,-0.2949,-0.2898,-0.2898,-0.2898,-0.2898,-0.2801,-0.2799,-0.2797,0,0,0,0,0,0,0,0,0,0,0,0,0,-0.3176,-0.3174,-0.3044,-0.3043,-0.3041,-0.2951,-0.295,-0.2948,-0.2898,-0.2898,-0.2898,-0.2898,-0.2802,-0.2799,-0.2796,0,0,0,0,0,0,0,0,0,0,0,0,0,-0.3105,-0.3173,-0.3044,-0.3005,-0.3001,-0.2951,-0.295,-0.2948,-0.2898,-0.2898,-0.2898,-0.2897,-0.2803,-0.28,-0.2796,-0.2777,0,0,-0.2785,-0.2783,0,0,0,0,0,0,0,0,-0.3109,-0.31,-0.3012,-0.3008,-0.3003,-0.2936,-0.2961,-0.2891,-0.2898,-0.2937,-0.2898,-0.2897,-0.2846,-0.2839,-0.2822,-0.2773,-0.2769,-0.2784,-0.2782,-0.2781,-0.278,0,0,0,0,0,0,0,-0.3114,-0.3104,-0.3007,-0.3011,-0.3005,-0.2992,-0.2982,-0.2948,-0.2894,-0.2934,-0.293,-0.292,-0.2844,-0.2826,-0.2819,-0.2767,-0.2785,-0.2781,-0.2779,-0.2778,-0.2698,-0.2698,0,0,0,0,0,0,-0.3125,-0.3108,-0.301,-0.3004,-0.3056,-0.299,-0.2978,-0.2958,-0.2894,-0.2884,-0.292,-0.2918,-0.2832,-0.2824,-0.2816,-0.279,-0.2781,-0.2777,-0.2775,-0.2698,-0.2698,-0.2698,0,0,0,0,0,0,-0.3128,-0.3117,-0.3014,-0.3055,-0.3041,-0.2988,-0.2965,-0.2956,-0.2938,-0.2884,-0.2874,-0.2911,-0.2831,-0.2821,-0.2787,-0.2786,-0.2776,-0.2772,-0.2698,-0.2698,-0.2698,-0.2738,0,0,0,0,0,0,-0.3132,-0.3118,-0.3111,-0.3055,-0.3039,-0.2987,-0.2965,-0.2954,-0.2932,-0.2928,-0.2873,-0.2864,-0.2831,-0.2793,-0.2784,-0.278,-0.2769,-0.2697,-0.2698,-0.2698,-0.2736,-0.2739,-0.2742,0,0,0,0,0,-0.3137,-0.3126,-0.3111,-0.3099,-0.3029,-0.2987,-0.2978,-0.294,-0.2932,-0.2924,-0.2889,-0.2865,-0.2787,-0.279,-0.2779,-0.2775,-0.2697,-0.2698,-0.2698,-0.2735,-0.2739,-0.2741,0,0,0,0,0,0,-0.3182,-0.3118,-0.31,-0.3071,-0.3035,-0.2979,-0.2968,-0.2945,-0.2911,-0.2908,-0.2863,-0.2851,-0.2821,-0.2794,-0.2799,-0.2753,-0.274,-0.2738,-0.2772,-0.2775,-0.2777,-0.2785,-0.2766,0,0,0,0,0,-0.3189,-0.3161,-0.3106,-0.3085,-0.3068,-0.3021,-0.3001,-0.2976,-0.2936,-0.2921,-0.2884,-0.2846,-0.2813,-0.2792,-0.2759,-0.2732,-0.2719,-0.2723,-0.2726,-0.2729,-0.2727,-0.2711,-0.2712,-0.2698,-0.2698,-0.2698,0,0,-0.3202,-0.3163,-0.3148,-0.3093,-0.3062,-0.3034,-0.3008,-0.298,-0.2958,-0.2916,-0.2883,-0.2854,-0.2809,-0.2779,-0.2763,-0.2755,-0.2728,-0.2729,-0.2731,-0.2729,-0.2711,-0.2713,-0.2714,-0.2698,-0.2698,-0.2698,0,0,-0.3212,-0.3179,-0.3159,-0.3128,-0.3082,-0.3051,-0.3046,-0.2993,-0.2973,-0.2938,-0.2906,-0.2879,-0.2823,-0.2793,-0.277,-0.2768,-0.2745,-0.2758,-0.2772,-0.2757,-0.2758,-0.2759,-0.2758,-0.2759,-0.2757,-0.2757,-0.2757,0,-0.3234,-0.3191,-0.3151,-0.3124,-0.31,-0.3061,-0.304,-0.3012,-0.2957,-0.2942,-0.2933,-0.2862,-0.2829,-0.2791,-0.2791,-0.2774,-0.2766,-0.2765,-0.2761,-0.2762,-0.2762,-0.2761,-0.2761,-0.2759,-0.2759,-0.2759,-0.2759,0,-0.322,-0.3191,-0.3179,-0.3128,-0.3103,-0.3079,-0.3035,-0.3014,-0.2991,-0.296,-0.2925,-0.2884,-0.2842,-0.2831,-0.2807,-0.2789,-0.2786,-0.277,-0.2756,-0.2766,-0.2764,-0.2763,-0.2762,-0.2761,-0.2761,-0.276,0,0,-0.3256,-0.3183,-0.3179,-0.3156,-0.3102,-0.3078,-0.3052,-0.3011,-0.2994,-0.2957,-0.2934,-0.2888,-0.2873,-0.2847,-0.2819,-0.2806,-0.2807,-0.2791,-0.2789,-0.2796,-0.2785,-0.2798,-0.2798,-0.2791,-0.2791,-0.2791,-0.2789,0,-0.3259,-0.3211,-0.3174,-0.314,-0.3112,-0.3074,-0.3051,-0.3016,-0.2986,-0.2958,-0.2926,-0.2894,-0.2876,-0.286,-0.2845,-0.281,-0.2804,-0.281,-0.2769,-0.2769,-0.2783,-0.2797,-0.2811,-0.2811,-0.2788,-0.2788,-0.2788,0,-0.3255,-0.3221,-0.3184,-0.3133,-0.312,-0.31,-0.3059,-0.3033,-0.2991,-0.2971,-0.2942,-0.2913,-0.2884,-0.2872,-0.2831,-0.2835,-0.2816,-0.2797,-0.2796,-0.2791,-0.2779,-0.2793,-0.281,-0.2811,-0.2786,-0.2786,-0.2787,0,-0.3286,-0.323,-0.3201,-0.3181,-0.3121,-0.3108,-0.3082,-0.304,-0.3018,-0.2982,-0.2967,-0.2928,-0.2907,-0.2877,-0.2839,-0.2834,-0.2801,-0.2786,-0.2784,-0.2785,-0.2779,-0.278,-0.2794,-0.2766,-0.2766,-0.2766,-0.2766,0,-0.3293,-0.3272,-0.3214,-0.3196,-0.3171,-0.3129,-0.3105,-0.3076,-0.3039,-0.3015,-0.2979,-0.2957,-0.2907,-0.2878,-0.2848,-0.2818,-0.2809,-0.2792,-0.2784,-0.2795,-0.2798,-0.2783,-0.2782,-0.2766,-0.2766,-0.2766,-0.2766,0,-0.3324,-0.3284,-0.3249,-0.3195,-0.318,-0.3165,-0.3118,-0.3099,-0.3067,-0.3037,-0.3027,-0.2978,-0.2943,-0.2901,-0.2852,-0.2831,-0.2805,-0.2793,-0.2819,-0.2815,-0.2815,-0.2815,-0.282,-0.2818,-0.2792,-0.2792,-0.2792,0,-0.3332,-0.3315,-0.3258,-0.3239,-0.3215,-0.3185,-0.3162,-0.3119,-0.3096,-0.3047,-0.3034,-0.2996,-0.2964,-0.2909,-0.2868,-0.2831,-0.2818,-0.2822,-0.2812,-0.2824,-0.2819,-0.282,-0.2819,-0.2825,-0.2826,-0.2826,-0.2826,0,-0.3349,-0.333,-0.3299,-0.326,-0.3234,-0.3201,-0.3167,-0.3154,-0.3104,-0.308,-0.3044,-0.3018,-0.2968,-0.2931,-0.2888,-0.2861,-0.2835,-0.283,-0.2827,-0.2839,-0.2855,-0.2847,-0.2827,-0.283,-0.283,-0.2829,-0.2829,-0.2829,-0.3369,-0.3352,-0.331,-0.3276,-0.3246,-0.3214,-0.3194,-0.316,-0.3129,-0.3085,-0.3062,-0.3026,-0.2984,-0.2924,-0.2897,-0.2869,-0.286,-0.2856,-0.2855,-0.2855,-0.2859,-0.2859,-0.286,-0.286,-0.286,-0.286,-0.286,0,-0.3385,-0.3356,-0.3325,-0.3279,-0.3252,-0.323,-0.3191,-0.317,-0.3139,-0.3103,-0.3071,-0.3029,-0.2993,-0.295,-0.291,-0.2895,-0.2883,-0.2886,-0.2887,-0.2882,-0.2868,-0.2875,-0.2897,-0.2897,-0.2897,-0.2897,-0.2897,-0.2897,-0.3391,-0.3362,-0.3337,-0.3292,-0.3263,-0.3228,-0.3208,-0.3179,-0.3149,-0.3104,-0.3074,-0.3046,-0.3006,-0.2964,-0.2929,-0.2917,-0.2905,-0.2912,-0.2897,-0.2886,-0.2883,-0.2879,-0.2885,-0.291,-0.291,-0.2913,-0.2913,-0.2913]},{"header":{"parameterUnit":"m.s-1","parameterCategory":1,"la1":30.2991,"la2":30.254,"lo1":-89.0895,"lo2":-89.0444,"dy":0.0017,"dx":0.0017,"nx":28,"ny":28,"refTime":"2024-02-14T03:00:00:Z","depth":0,"parameterNumber":3,"parameterNumberName":"V-component_of_WINDS"},"data":[0,0,0,0,0,0,0,0,0,0,0,0,0,0,0,0,0,0,0,0,0,0,0,0,0,0,0,0,0,0,0,0,0,0,0,0,0,0,0,0,0,0,0,0,0,0,0,0,0,0,0,0,0,0,0,0,0,0,1.1535,1.1536,0,1.1559,1.1559,1.1559,1.1575,1.1575,1.1575,1.1575,1.1598,1.1598,1.1599,0,0,0,0,0,0,0,0,0,0,0,0,0,1.1502,1.1503,1.1535,1.1536,1.1536,1.1559,1.1559,1.1559,1.1575,1.1575,1.1575,1.1576,1.1598,1.1598,1.1599,0,0,0,0,0,0,0,0,0,0,0,0,0,1.152,1.1503,1.1535,1.1546,1.1548,1.1559,1.1559,1.1559,1.1575,1.1575,1.1575,1.1576,1.1598,1.1598,1.1599,1.16,0,0,1.1601,1.1602,0,0,0,0,0,0,0,0,1.1519,1.1521,1.1545,1.1546,1.1547,1.1564,1.1556,1.1573,1.1575,1.1565,1.1575,1.1576,1.1586,1.1588,1.1592,1.1601,1.1602,1.1601,1.1602,1.1602,1.1602,0,0,0,0,0,0,0,1.1518,1.152,1.1545,1.1545,1.1546,1.155,1.1553,1.1559,1.1574,1.1566,1.1567,1.1569,1.1587,1.1591,1.1593,1.1602,1.1601,1.1602,1.1602,1.1603,1.1613,1.1613,0,0,0,0,0,0,1.1515,1.1519,1.1544,1.1545,1.1533,1.155,1.1553,1.1559,1.1574,1.1577,1.1569,1.157,1.159,1.1592,1.1594,1.1596,1.1602,1.1603,1.1603,1.1613,1.1613,1.1613,0,0,0,0,0,0,1.1514,1.1517,1.1543,1.1533,1.1536,1.1551,1.1556,1.1559,1.1563,1.1577,1.158,1.1571,1.159,1.1593,1.1598,1.1597,1.1603,1.1604,1.1613,1.1613,1.1613,1.16,0,0,0,0,0,0,1.1513,1.1517,1.1518,1.1533,1.1537,1.1548,1.1556,1.1559,1.1565,1.1566,1.1579,1.1582,1.1591,1.1597,1.1599,1.1598,1.1604,1.1614,1.1613,1.1613,1.16,1.1599,1.1598,0,0,0,0,0,1.1512,1.1513,1.1518,1.1521,1.1538,1.1548,1.155,1.1561,1.1564,1.1565,1.1574,1.1581,1.1597,1.1598,1.16,1.1599,1.1614,1.1613,1.1613,1.1601,1.1599,1.1598,0,0,0,0,0,0,1.1497,1.1515,1.1521,1.1526,1.1535,1.155,1.1552,1.1559,1.1566,1.1567,1.158,1.1583,1.1587,1.1594,1.1594,1.16,1.1606,1.1606,1.1596,1.1595,1.1593,1.1591,1.1605,0,0,0,0,0,1.1494,1.1501,1.1516,1.152,1.1524,1.1537,1.1541,1.1549,1.1559,1.1562,1.1572,1.158,1.1587,1.1591,1.1598,1.1601,1.1604,1.1602,1.16,1.1599,1.1599,1.1601,1.16,1.1612,1.1612,1.1612,0,0,1.1489,1.1499,1.1503,1.1517,1.1525,1.1531,1.154,1.1546,1.155,1.1563,1.1569,1.1576,1.1587,1.1591,1.1593,1.1597,1.1596,1.1599,1.1598,1.1598,1.16,1.1599,1.1598,1.1611,1.1611,1.1611,0,0,1.1482,1.1491,1.1494,1.1502,1.1514,1.1523,1.1524,1.1538,1.1543,1.1549,1.1559,1.1564,1.1576,1.1583,1.1588,1.1583,1.159,1.1585,1.1578,1.158,1.1579,1.1578,1.1576,1.1575,1.1585,1.1585,1.1585,0,1.1473,1.1483,1.1495,1.1501,1.1506,1.1519,1.1522,1.1529,1.1542,1.1546,1.1549,1.1564,1.1572,1.1578,1.1576,1.158,1.1581,1.1583,1.1578,1.1577,1.1577,1.1575,1.1574,1.1584,1.1584,1.1584,1.1584,0,1.1472,1.1478,1.148,1.1493,1.1499,1.1503,1.1516,1.152,1.1527,1.1535,1.1541,1.1551,1.156,1.1562,1.1569,1.1569,1.157,1.1576,1.1581,1.1575,1.1573,1.1572,1.1583,1.1583,1.1583,1.1584,0,0,1.1455,1.1475,1.1476,1.1482,1.1496,1.1501,1.1506,1.1515,1.1518,1.1527,1.1531,1.154,1.1545,1.1551,1.1559,1.156,1.1555,1.1565,1.1566,1.1562,1.1555,1.155,1.1549,1.156,1.1559,1.1559,1.1554,0,1.145,1.146,1.1471,1.1477,1.1483,1.1494,1.1498,1.1507,1.1515,1.152,1.1529,1.1535,1.1541,1.1545,1.1547,1.1555,1.1553,1.1556,1.1562,1.1563,1.1559,1.1548,1.1544,1.1538,1.1553,1.1553,1.1553,0,1.1445,1.1454,1.146,1.1474,1.1477,1.148,1.1489,1.1495,1.1505,1.151,1.1516,1.1525,1.1529,1.1535,1.1541,1.1543,1.1546,1.1551,1.1551,1.1551,1.1557,1.1548,1.1536,1.1535,1.1552,1.1552,1.1552,0,1.1432,1.1445,1.1451,1.1456,1.1471,1.1474,1.148,1.149,1.1495,1.1503,1.1506,1.1514,1.1519,1.1524,1.1534,1.1538,1.1539,1.1546,1.1543,1.1543,1.1543,1.1543,1.1531,1.1546,1.1546,1.1546,1.1546,0,1.1425,1.1428,1.1445,1.1448,1.1452,1.1465,1.1468,1.1475,1.1484,1.1489,1.1499,1.1503,1.1516,1.1521,1.1529,1.1533,1.1535,1.1539,1.1541,1.1537,1.1537,1.1539,1.154,1.1546,1.1546,1.1546,1.1546,0,1.1411,1.1422,1.1429,1.1444,1.1447,1.1449,1.1461,1.1465,1.1473,1.1478,1.148,1.1493,1.15,1.151,1.152,1.1525,1.1527,1.1531,1.1524,1.1525,1.1521,1.1521,1.151,1.1509,1.1526,1.1525,1.1525,0,1.1405,1.1408,1.1423,1.1427,1.1433,1.1439,1.1444,1.1457,1.1461,1.1473,1.1474,1.1482,1.1488,1.1498,1.1508,1.1515,1.1519,1.1514,1.152,1.1516,1.1518,1.1517,1.1517,1.1513,1.1512,1.1512,1.1512,0,1.1393,1.1399,1.1406,1.1415,1.1421,1.1429,1.1437,1.1439,1.1453,1.1458,1.1465,1.147,1.148,1.1487,1.1495,1.1501,1.1509,1.151,1.151,1.1507,1.1502,1.1504,1.152,1.151,1.1511,1.1511,1.1511,1.1511,1.1383,1.1386,1.1397,1.1404,1.1412,1.1419,1.1423,1.1432,1.1438,1.1447,1.1454,1.146,1.147,1.1482,1.1488,1.1492,1.1496,1.1495,1.1495,1.1495,1.1493,1.1502,1.1494,1.1494,1.1494,1.1494,1.1494,0,1.1371,1.1379,1.1386,1.1397,1.1403,1.141,1.1419,1.1423,1.1429,1.1437,1.1444,1.1451,1.1458,1.1468,1.1476,1.1478,1.1481,1.1479,1.1479,1.148,1.149,1.1489,1.1476,1.1476,1.1476,1.1476,1.1476,1.1476,1.1366,1.1371,1.1378,1.1387,1.1394,1.1401,1.1406,1.1412,1.1419,1.1427,1.1433,1.144,1.1449,1.1457,1.1463,1.1466,1.1468,1.1465,1.1468,1.1478,1.1479,1.1481,1.148,1.1465,1.1465,1.1458,1.1457,1.1457]}]]